STARLINK-11158 [DTC] (60403 NORAD) Tracking and Keplerian Element Data

This shows tracking and keplerian element data for the satellite.

Feedback or suggestion? Click here.




ElementValue
Catalog60403
NameSTARLINK-11158 [DTC]
Epoch Orbit1112
Epoch Day286.74133966
Epoch Year2024
RAAN95.272
Inclination53.1584
Eccentricity0.0001226
Argument of Perigee87.956
Mean Anonmoly272.1598
Mean Motion15.6975299
Decay Rate7.953E-05
L11 60403U 24141F 24286.74133966 .00007953 00000+0 70318-4 0 9992
L22 60403 53.1584 95.2720 0001226 87.9560 272.1598 15.69752990 11124



Live tracking and technical data element details for STARLINK-11158 [DTC] (NORAD 60403). STARLINK-11158 [DTC] can be tracked NOW for your location showing map with azimuth and elevation plus other details from your city location.







IsCatalogInMostPopularTable: catalog: 60403, numindb: 6
Update: records affected: 1



GetName: 60403 STARLINK-11158 [DTC]

Hit Count: updated at: Tue, 03 Dec 2024 03:14:24 GMT